Regional Weather Roundup
Issued by NWS Nashville, TN

Home | Current Version | Previous Version | Text Only | Print | Product List | Glossary On
Versions: 1 2 3 4 5 6 7 8 9 10 11 12 13 14 15 16 17 18 19 20 21 22 23 24 25 26 27 28 29 30 31 32 33 34 35 36 37 38 39 40 41 42 43 44 45 46 47 48 49 50
000
ASUS44 KOHX 021300
RWROHX
MIDDLE TENNESSEE HOURLY WEATHER ROUNDUP
NATIONAL WEATHER SERVICE NASHVILLE TN
700 AM CST MON MAR 02 2015

NOTE: "FAIR" INDICATES FEW OR NO CLOUDS BELOW 12,000 FEET WITH
NO SIGNIFICANT WEATHER AND/OR OBSTRUCTIONS TO VISIBILITY.

* THESE REPORTS ARE NOT UNDER NWS QUALITY CONTROL AND MAY NOT
  REPORT WEATHER SUCH AS PRECIPITATION AND FOG.


TNZ005>011-023>034-057-059-062>066-078-080-021400
...NORTHERN MIDDLE TENNESSEE...

CITY           SKY/WX    TMP DP  RH WIND       PRES   REMARKS
CLARKSVILLE    CLEAR     28  23  81 NE6       30.51S WCI  22
CROSSVILLE     CLOUDY    33  31  92 N12       30.38R FOG     WCI  24
NASHVILLE      CLOUDY    32  30  92 N9        30.46F FOG     WCI  24
SPARTA         CLOUDY    34  34 100 N6        30.41S WCI  29
$$
TNZ056-058-060-061-075>077-079-093>097-021400
...SOUTHERN MIDDLE TENNESSEE...

CITY           SKY/WX    TMP DP  RH WIND       PRES   REMARKS
COLUMBIA         N/A    N/A N/A N/A NE9       30.44R
MCMINNVILLE    CLOUDY    36  36 100 N8        30.43R WCI  29
SHELBYVILLE    CLOUDY    34  34 100 N8        30.44R WCI  27
TULLAHOMA      CLOUDY    34  34 100 N10       30.41R WCI  26
WINCHESTER     CLOUDY    37  36  93 N10       30.41R WCI  30
$$


...KEY TO REMARKS...
VSB - VISIBILITY IN MILES
WCI - WIND CHILL INDEX
HX  - HEAT INDEX



USA.gov is the U.S. government's official web portal to all federal, state and local government web resources and services.